SWR915W LSZH-LSGG

Flight info

Callsign SWR915W
Flight time 0h 36m
Altitude 18000
Route VEBIT T50 ROTOS Z669 ULMES
Aircraft A319/M-SDE3FGHIRWY/LB1

Departure

Time 2026-05-07 16:56
Airport Zürich Airport (LSZH)

Arrival

Time 2026-05-07 17:33
Airport Geneva International Airport (LSGG)
Time Latitude Longitude Altitude Speed Heading
2026-05-07 16:27 47.45417 8.55872 1415 ft 0 kts 186°
2026-05-07 16:48 47.45428 8.55874 1407 ft 4 kts 189°
2026-05-07 16:49 47.45454 8.55881 1410 ft 4 kts 182°
2026-05-07 16:49 47.45475 8.55874 1413 ft 4 kts 148°
2026-05-07 16:49 47.45495 8.55849 1407 ft 4 kts 120°
2026-05-07 16:49 47.45504 8.55813 1410 ft 4 kts 98°
2026-05-07 16:50 47.45506 8.55779 1413 ft 1 kts 96°
2026-05-07 16:50 47.45506 8.55778 1413 ft 0 kts 96°
2026-05-07 16:52 47.45506 8.55780 1413 ft 1 kts 95°
2026-05-07 16:52 47.45510 8.55789 1412 ft 1 kts 56°
2026-05-07 16:52 47.45514 8.55795 1411 ft 1 kts 49°
2026-05-07 16:53 47.45518 8.55803 1414 ft 2 kts 49°
2026-05-07 16:53 47.45568 8.55842 1411 ft 12 kts
2026-05-07 16:53 47.45631 8.55885 1414 ft 10 kts 84°
2026-05-07 16:53 47.45627 8.56023 1410 ft 18 kts 100°
2026-05-07 16:54 47.45615 8.56203 1412 ft 17 kts 96°
2026-05-07 16:54 47.45601 8.56387 1416 ft 20 kts 96°
2026-05-07 16:54 47.45586 8.56600 1417 ft 20 kts 95°
2026-05-07 16:54 47.45570 8.56799 1420 ft 19 kts 97°
2026-05-07 16:55 47.45577 8.56985 1422 ft 17 kts 69°
2026-05-07 16:55 47.45662 8.56953 1424 ft 18 kts 291°
2026-05-07 16:55 47.45687 8.56686 1418 ft 46 kts 276°
2026-05-07 16:55 47.45747 8.55824 1411 ft 119 kts 276°
2026-05-07 16:56 47.45848 8.54357 1584 ft 152 kts 278°
2026-05-07 16:56 47.45955 8.52805 2299 ft 152 kts 277°
2026-05-07 16:56 47.46186 8.49673 3826 ft 153 kts 278°
2026-05-07 16:57 47.46309 8.48128 4528 ft 150 kts 278°
2026-05-07 16:57 47.46436 8.46612 5198 ft 147 kts 278°
2026-05-07 16:57 47.46498 8.45105 5711 ft 153 kts 260°
2026-05-07 16:57 47.45968 8.43652 5979 ft 177 kts 221°
2026-05-07 16:58 47.44899 8.42527 6282 ft 200 kts 219°
2026-05-07 16:58 47.43779 8.41115 6560 ft 224 kts 223°
2026-05-07 16:58 47.42561 8.39474 6922 ft 249 kts 223°
2026-05-07 16:58 47.41231 8.37675 7563 ft 266 kts 223°
2026-05-07 16:59 47.39848 8.35817 8470 ft 271 kts 224°
2026-05-07 16:59 47.38647 8.33659 9486 ft 274 kts 238°
2026-05-07 16:59 47.37748 8.31172 10494 ft 276 kts 243°
2026-05-07 16:59 47.36841 8.28580 11016 ft 296 kts 242°
2026-05-07 17:00 47.35850 8.25795 11498 ft 314 kts 242°
2026-05-07 17:00 47.34816 8.22910 12276 ft 321 kts 242°
2026-05-07 17:00 47.33765 8.19979 13104 ft 325 kts 242°
2026-05-07 17:00 47.32704 8.17012 13909 ft 330 kts 242°
2026-05-07 17:01 47.31626 8.13996 14628 ft 334 kts 242°
2026-05-07 17:01 47.30542 8.10954 15322 ft 338 kts 242°
2026-05-07 17:01 47.29442 8.07865 16040 ft 342 kts 242°
2026-05-07 17:01 47.28333 8.04746 16767 ft 346 kts 242°
2026-05-07 17:02 47.27213 8.01590 17463 ft 350 kts 242°
2026-05-07 17:02 47.26206 7.98306 17901 ft 354 kts 247°
2026-05-07 17:02 47.25274 7.94975 17999 ft 349 kts 248°
2026-05-07 17:02 47.24359 7.91691 18012 ft 345 kts 248°
2026-05-07 17:03 47.23464 7.88471 18016 ft 344 kts 248°
2026-05-07 17:03 47.22557 7.85215 18013 ft 344 kts 248°
2026-05-07 17:03 47.21647 7.81963 18014 ft 344 kts 247°
2026-05-07 17:03 47.20735 7.78714 18013 ft 344 kts 247°
2026-05-07 17:04 47.19822 7.75466 18006 ft 344 kts 247°
2026-05-07 17:04 47.18780 7.72316 18008 ft 344 kts 238°
2026-05-07 17:04 47.17366 7.69486 18008 ft 344 kts 232°
2026-05-07 17:04 47.15875 7.66739 18006 ft 344 kts 232°
2026-05-07 17:05 47.14387 7.63989 18013 ft 344 kts 232°
2026-05-07 17:05 47.12899 7.61238 18009 ft 344 kts 232°
2026-05-07 17:05 47.11411 7.58488 18017 ft 344 kts 232°
2026-05-07 17:05 47.09925 7.55739 18019 ft 344 kts 232°
2026-05-07 17:06 47.08435 7.52987 18023 ft 343 kts 232°
2026-05-07 17:06 47.06952 7.50250 18024 ft 343 kts 232°
2026-05-07 17:06 47.05465 7.47509 18017 ft 343 kts 232°
2026-05-07 17:06 47.03976 7.44763 18015 ft 343 kts 232°
2026-05-07 17:07 47.02489 7.42025 18017 ft 343 kts 232°
2026-05-07 17:07 47.01000 7.39292 18022 ft 343 kts 232°
2026-05-07 17:07 46.99509 7.36562 18022 ft 343 kts 232°
2026-05-07 17:07 46.98016 7.33836 18021 ft 343 kts 232°
2026-05-07 17:08 46.96520 7.31113 18018 ft 343 kts 232°
2026-05-07 17:08 46.95027 7.28400 18019 ft 343 kts 232°
2026-05-07 17:08 46.93532 7.25677 17993 ft 340 kts 232°
2026-05-07 17:08 46.92051 7.22972 17721 ft 343 kts 232°
2026-05-07 17:09 46.90554 7.20243 17449 ft 344 kts 232°
2026-05-07 17:09 46.89056 7.17516 17208 ft 346 kts 232°
2026-05-07 17:09 46.87531 7.14747 16946 ft 352 kts 232°
2026-05-07 17:09 46.86011 7.11994 16686 ft 352 kts 232°
2026-05-07 17:10 46.84479 7.09220 16427 ft 351 kts 232°
2026-05-07 17:10 46.82950 7.06449 16173 ft 349 kts 232°
2026-05-07 17:10 46.81430 7.03689 15919 ft 348 kts 232°
2026-05-07 17:10 46.79915 7.00943 15667 ft 347 kts 232°
2026-05-07 17:11 46.78401 6.98206 15420 ft 345 kts 232°
2026-05-07 17:11 46.76896 6.95488 15167 ft 344 kts 232°
2026-05-07 17:11 46.75401 6.92788 14916 ft 342 kts 232°
2026-05-07 17:11 46.73906 6.90090 14669 ft 342 kts 232°
2026-05-07 17:12 46.72415 6.87399 14431 ft 341 kts 232°
2026-05-07 17:12 46.70926 6.84717 14195 ft 340 kts 232°
2026-05-07 17:12 46.69441 6.82046 13949 ft 339 kts 231°
2026-05-07 17:12 46.67961 6.79386 13694 ft 337 kts 231°
2026-05-07 17:13 46.66436 6.76799 13424 ft 336 kts 225°
2026-05-07 17:13 46.64670 6.74653 13156 ft 328 kts 216°
2026-05-07 17:13 46.62722 6.73000 12887 ft 319 kts 210°
2026-05-07 17:13 46.60795 6.71487 12624 ft 311 kts 210°
2026-05-07 17:14 46.58918 6.70007 12359 ft 303 kts 210°
2026-05-07 17:14 46.57084 6.68559 12091 ft 297 kts 210°
2026-05-07 17:14 46.55289 6.67144 11841 ft 291 kts 210°
2026-05-07 17:14 46.53528 6.65757 11583 ft 285 kts 209°
2026-05-07 17:15 46.51792 6.64391 11332 ft 282 kts 209°
2026-05-07 17:15 46.50071 6.63039 11097 ft 280 kts 209°
2026-05-07 17:15 46.48357 6.61693 10999 ft 280 kts 209°
2026-05-07 17:15 46.46664 6.60364 11008 ft 280 kts 209°
2026-05-07 17:16 46.44954 6.59020 11004 ft 280 kts 209°
2026-05-07 17:16 46.43235 6.57671 11000 ft 280 kts 209°
2026-05-07 17:16 46.41520 6.56325 11004 ft 280 kts 209°
2026-05-07 17:16 46.39849 6.54872 11001 ft 280 kts 217°
2026-05-07 17:17 46.38411 6.52978 11004 ft 280 kts 226°
2026-05-07 17:17 46.37054 6.50951 10868 ft 281 kts 225°
2026-05-07 17:17 46.35695 6.48934 10623 ft 280 kts 225°
2026-05-07 17:17 46.34336 6.46924 10379 ft 279 kts 225°
2026-05-07 17:18 46.32980 6.44923 10135 ft 278 kts 225°
2026-05-07 17:18 46.31627 6.42928 9892 ft 277 kts 225°
2026-05-07 17:18 46.30279 6.40941 9625 ft 276 kts 225°
2026-05-07 17:18 46.28936 6.38961 9374 ft 275 kts 225°
2026-05-07 17:19 46.27600 6.36994 9108 ft 274 kts 225°
2026-05-07 17:19 46.26264 6.35026 8847 ft 274 kts 225°
2026-05-07 17:19 46.24932 6.33065 8588 ft 273 kts 225°
2026-05-07 17:19 46.23600 6.31105 8334 ft 273 kts 225°
2026-05-07 17:20 46.22271 6.29146 8091 ft 273 kts 225°
2026-05-07 17:20 46.20941 6.27191 7984 ft 273 kts 225°
2026-05-07 17:20 46.19611 6.25240 7994 ft 273 kts 225°
2026-05-07 17:20 46.18298 6.23301 8001 ft 273 kts 225°
2026-05-07 17:21 46.16979 6.21340 8002 ft 273 kts 225°
2026-05-07 17:21 46.15655 6.19372 8001 ft 273 kts 225°
2026-05-07 17:21 46.14338 6.17419 7998 ft 265 kts 225°
2026-05-07 17:21 46.13094 6.15574 7999 ft 248 kts 225°
2026-05-07 17:22 46.11915 6.13818 7999 ft 242 kts 225°
2026-05-07 17:22 46.10748 6.12084 8000 ft 240 kts 225°
2026-05-07 17:22 46.09582 6.10358 7999 ft 240 kts 225°
2026-05-07 17:22 46.08415 6.08626 7873 ft 242 kts 225°
2026-05-07 17:23 46.07251 6.06903 7603 ft 239 kts 225°
2026-05-07 17:23 46.06090 6.05187 7351 ft 239 kts 225°
2026-05-07 17:23 46.04924 6.03469 7104 ft 239 kts 225°
2026-05-07 17:23 46.03766 6.01764 6859 ft 239 kts 225°
2026-05-07 17:24 46.02598 6.00054 6614 ft 239 kts 225°
2026-05-07 17:24 46.01432 5.98347 6372 ft 240 kts 225°
2026-05-07 17:24 46.00254 5.96640 6115 ft 241 kts 225°
2026-05-07 17:24 45.99064 5.94942 5977 ft 241 kts 225°
2026-05-07 17:25 45.97926 5.93178 5977 ft 241 kts 237°
2026-05-07 17:25 45.97416 5.90926 5984 ft 241 kts 268°
2026-05-07 17:25 45.97801 5.88611 5980 ft 237 kts 297°
2026-05-07 17:25 45.98635 5.86602 5983 ft 233 kts 302°
2026-05-07 17:26 45.99517 5.84656 5988 ft 232 kts 303°
2026-05-07 17:26 46.00135 5.83404 5984 ft 233 kts 311°
2026-05-07 17:26 46.01479 5.82146 5988 ft 234 kts 343°
2026-05-07 17:26 46.03085 5.81967 5994 ft 233 kts 11°
2026-05-07 17:27 46.04947 5.83371 5992 ft 232 kts 46°
2026-05-07 17:27 46.06084 5.85026 5957 ft 233 kts 47°
2026-05-07 17:27 46.07220 5.86686 5714 ft 231 kts 46°
2026-05-07 17:27 46.08343 5.88318 5424 ft 228 kts 46°
2026-05-07 17:28 46.09453 5.89932 5141 ft 226 kts 45°
2026-05-07 17:28 46.10195 5.91011 4944 ft 224 kts 45°
2026-05-07 17:28 46.11290 5.92606 4650 ft 224 kts 45°
2026-05-07 17:28 46.12373 5.94184 4337 ft 218 kts 44°
2026-05-07 17:29 46.13410 5.95695 4042 ft 204 kts 44°
2026-05-07 17:29 46.14374 5.97102 3826 ft 193 kts 44°
2026-05-07 17:29 46.15290 5.98437 3547 ft 187 kts 44°
2026-05-07 17:29 46.16198 5.99762 3301 ft 184 kts 44°
2026-05-07 17:30 46.17091 6.01067 3058 ft 182 kts 44°
2026-05-07 17:30 46.17986 6.02374 2810 ft 182 kts 44°
2026-05-07 17:30 46.18849 6.03636 2563 ft 171 kts 45°
2026-05-07 17:30 46.19652 6.04811 2348 ft 156 kts 44°
2026-05-07 17:31 46.20374 6.05866 2110 ft 140 kts 45°
2026-05-07 17:31 46.21026 6.06824 1905 ft 129 kts 45°
2026-05-07 17:31 46.21644 6.07726 1734 ft 123 kts 45°
2026-05-07 17:31 46.22249 6.08610 1592 ft 125 kts 45°
2026-05-07 17:32 46.22860 6.09511 1461 ft 126 kts 45°
2026-05-07 17:32 46.23436 6.10353 1396 ft 103 kts 45°
2026-05-07 17:32 46.23816 6.10914 1378 ft 59 kts 45°
2026-05-07 17:32 46.24095 6.11322 1377 ft 59 kts 45°
2026-05-07 17:33 46.24319 6.11747 1370 ft 43 kts 72°
2026-05-07 17:33 46.24308 6.11929 1364 ft 15 kts 161°
2026-05-07 17:33 46.24221 6.11836 1363 ft 16 kts 224°
2026-05-07 17:33 46.24144 6.11727 1366 ft 15 kts 225°
2026-05-07 17:34 46.24077 6.11629 1368 ft 13 kts 226°
2026-05-07 17:34 46.24010 6.11527 1371 ft 19 kts 226°
2026-05-07 17:34 46.23918 6.11394 1375 ft 18 kts 224°
2026-05-07 17:34 46.23834 6.11272 1378 ft 17 kts 228°
2026-05-07 17:35 46.23738 6.11134 1382 ft 24 kts 224°
2026-05-07 17:35 46.23631 6.10972 1386 ft 21 kts 226°
2026-05-07 17:35 46.23527 6.10820 1390 ft 21 kts 223°
2026-05-07 17:35 46.23422 6.10668 1397 ft 21 kts 221°
2026-05-07 17:36 46.23331 6.10543 1396 ft 11 kts 226°
2026-05-07 17:36 46.23269 6.10540 1396 ft 12 kts 138°
2026-05-07 17:36 46.23202 6.10638 1403 ft 14 kts 136°
2026-05-07 17:36 46.23169 6.10723 1396 ft 9 kts 137°
2026-05-07 17:37 46.23156 6.10741 1398 ft 0 kts 136°